Home   Weather   Marrakech   Past weeks

Flag for Morocco Past Weather in Marrakech, Morocco — Yesterday and Last 2 Weeks

Now
46 °F

Passing clouds.


Feels Like: 44 °F
Forecast: N/A
Wind: 5 mph from East

Location: Marrakech Airport

Current Time: Jan 23, 2017 at 10:58:42 pm

Latest Report: Jan 23, 2017 at 10:30 pm


Visibility: N/A

Pressure: 30.27 "Hg

Humidity: 76%

Dew Point: 39 °F

Location of MarrakechLocation

Past Weather in Marrakech — Graph

°F

Marrakech Temperature Yesterday

Maximum temperature yesterday: 57 °F (at 4:00 pm)
Minimum temperature yesterday: 36 °F (at 5:30 am)
Average temperature yesterday: 47 °F

High & Low Weather Summary for the Past Weeks

 TemperatureHumidityPressure
High70 °F (Jan 12, 2:00 pm)93% (Jan 22, 3:00 am)30.30 "Hg (Jan 22, 3:00 am)
Low36 °F (Jan 22, 5:30 am)18% (Jan 12, 4:00 pm)29.92 "Hg (Jan 19, 4:30 am)
Average50 °F56%30.13 "Hg
* Reported Jan 8 10:00 pm — Jan 23 10:00 pm, Marrakech, Weather by CustomWeather, © 2017

Note: Actual official high and low records may vary slightly from our data, if they occured in-between our weather recording intervals... More about our weather records

Advertising

Marrakech Weather History for the Previous 24 Hours

Scroll right to see more
 ConditionsComfort  
Time TempWeatherWind HumidityBarometerVisibility
10:00 pm
Mon, Jan 23
48 °FPassing clouds.5 mph66%30.24 "HgN/A
9:30 pm48 °FPassing clouds.6 mph71%30.24 "HgN/A
8:00 pm46 °FPassing clouds.3 mph71%30.24 "HgN/A
7:30 pm48 °FPassing clouds.8 mph66%30.24 "HgN/A
7:00 pm50 °FPassing clouds.8 mph62%30.21 "HgN/A
6:30 pm50 °FPassing clouds.No wind62%30.21 "HgN/A
6:00 pm50 °FLight rain. Passing clouds.5 mph67%30.21 "HgN/A
5:30 pm52 °FPartly cloudy.5 mph62%30.18 "HgN/A
5:00 pm52 °FPartly cloudy.9 mph62%30.18 "HgN/A
4:30 pm52 °FBroken clouds.8 mph67%30.18 "HgN/A
4:00 pm54 °FBroken clouds.10 mph58%30.18 "HgN/A
3:30 pm55 °FBroken clouds.7 mph47%30.15 "HgN/A
3:00 pm55 °FBroken clouds.3 mph47%30.15 "HgN/A
2:30 pm55 °FScattered clouds.5 mph47%30.15 "HgN/A
2:00 pm55 °FScattered clouds.6 mph44%30.15 "HgN/A
1:30 pm55 °FBroken clouds.5 mph47%30.15 "HgN/A
1:00 pm57 °FScattered clouds.6 mph44%30.18 "HgN/A
12:30 pm55 °FScattered clouds.5 mph47%30.18 "HgN/A
12:00 pm54 °FScattered clouds.5 mph51%30.21 "HgN/A
11:30 am54 °FPartly sunny.3 mph54%30.21 "HgN/A
11:00 am52 °FPartly sunny.3 mph58%30.21 "HgN/A
10:30 am52 °FPartly sunny.3 mph62%30.21 "HgN/A
10:00 am50 °FPartly sunny.5 mph58%30.21 "HgN/A
9:30 am48 °FPartly sunny.5 mph62%30.18 "HgN/A
9:00 am46 °FPartly sunny.5 mph66%30.18 "HgN/A
8:30 am45 °FPartly sunny.5 mph71%30.18 "HgN/A
8:00 am45 °FPartly sunny.No wind76%30.18 "Hg5 mi
7:30 am45 °FBroken clouds.No wind71%30.18 "Hg5 mi
7:00 am45 °FLight rain. Scattered clouds.3 mph71%30.18 "HgN/A
6:30 am45 °FScattered clouds.2 mph76%30.18 "HgN/A
6:00 am45 °FPassing clouds.2 mph71%30.15 "HgN/A
5:30 am45 °FPassing clouds.2 mph71%30.15 "HgN/A
5:00 am45 °FPassing clouds.3 mph71%30.15 "HgN/A
4:30 am45 °FPassing clouds.5 mph71%30.15 "HgN/A
4:00 am45 °FPassing clouds.3 mph71%30.15 "HgN/A
3:30 am45 °FPassing clouds.2 mph71%30.15 "HgN/A
3:00 am43 °FPassing clouds.2 mph76%30.15 "HgN/A
2:30 am41 °FPassing clouds.2 mph76%30.15 "HgN/A
2:00 am43 °FPassing clouds.3 mph71%30.15 "HgN/A
1:30 am46 °FPassing clouds.3 mph66%30.15 "HgN/A
1:00 am46 °FPassing clouds.6 mph66%30.15 "HgN/A
12:30 am46 °FPassing clouds.5 mph66%30.18 "HgN/A
12:00 am46 °FPassing clouds.6 mph66%30.18 "Hg5 mi
11:30 pm
Sun, Jan 22
43 °FPassing clouds.3 mph71%30.18 "Hg5 mi
11:00 pm45 °FPassing clouds.2 mph71%30.18 "Hg5 mi
10:30 pm45 °FPassing clouds.5 mph71%30.18 "Hg5 mi
10:00 pm46 °FPassing clouds.5 mph66%30.18 "Hg5 mi
Weather by CustomWeather, © 2017

See weather overviewHow to use our weather pages